sat.trackr.live / text

‹ back to catalog

STARLINK-31889

NORAD 59847 · 2024-097N

PAYLOAD ACTIVE UNKNOWN

§ Identity

Operator
Country
US
Launch date
2024-05-23
Launch site
AFETR
Launch vehicle
Mass (kg)
RCS (m²)

Purposes: comms

External: N2YO · Heavens-Above · Gunter

§ Orbital elements

Epoch: 2026-05-25T04:52:40.609056Z

Period
94.27 min
Inclination
43.0017°
Eccentricity
0.0000943
Mean motion
15.27574788 rev/d
Perigee alt
482.4 km
Apogee alt
483.7 km
Semi-major
6,861.2 km
B*
-3.5549e-6
RAAN
202.6754°
Arg perigee
279.8290°
Mean anomaly
80.2455°
Rev number
11,361

§ Raw data

STARLINK-318891 59847U 24097N   26145.20324779 -.00000360  00000+0 -35549-5 0  99982 59847  43.0017 202.6754 0000943 279.8290  80.2455 15.27574788113619

JSON: /api/v1/satellites/59847 · /tle

For live sub-satellite position, see the globe view (requires WebGL).

§ Visibility from observer

Set your observer location to see the next 7 days of passes ≥ 10°. The values pass through the URL so the page stays shareable.

No JS? Fill the form by hand. The geolocation button needs JavaScript.